Regional Weather Roundup
Issued by NWS

Home | Current Version | Previous Version | Graphics & Text | Print | Product List | Glossary On
Versions: 1 2 3 4 5 6 7 8 9 10 11 12 13 14 15 16 17 18 19 20 21 22 23 24 25 26 27 28 29 30 31 32 33 34 35 36 37 38 39 40 41 42 43 44 45 46 47 48 49 50
756
ASUS44 KJAN 280710
RWRMS

MISSISSIPPI HOURLY WEATHER ROUNDUP
NATIONAL WEATHER SERVICE JACKSON MS
200 AM CDT THU AUG 28 2014

NOTE: "FAIR: INDICATES FEW OR NO CLOUDS BELOW 12,000 FEET WITH NO
SIGNIFICANT WEATHER AND/OR OBSTRUCTIONS TO VISIBILITY.

MSZ001>002-007>008-010>013-018>021-025>028-034>036-280800-
NORTHWEST MISSISSIPPI

CITY           SKY/WX    TMP DP  RH WIND       PRES   REMARKS
CLARKSDALE     FAIR      70  70 100 CALM      30.03S
CLEVELAND      FAIR      71  71  98 CALM      30.01S
GREENWOOD      CLEAR     69  66  90 NE5       30.01F
GREENVILLE     CLEAR     71  68  90 CALM      30.01S
GRENADA        FAIR      64  64 100 CALM      30.02S
OLIVE BRANCH   CLEAR     73  72  94 CALM      30.03F
OXFORD         FAIR      66  64  94 CALM      30.04F
TUNICA         SUNNY     70  68  94 CALM      30.03S
$$

MSZ003>006-009-014>017-022>024-029>033-037>039-280800-
NORTHEAST MISSISSIPPI

CITY           SKY/WX    TMP DP  RH WIND       PRES   REMARKS
BELMONT        CLOUDY    71  69  95 CALM      30.03F
COLUMBUS AFB   CLEAR     67  65  93 E2        30.02S
CORINTH          N/A     70  68  94 CALM      30.02F
GOLDN TRIANGLE PTCLDY    70  63  78 CALM      30.02S
STARKVILLE     FAIR      66  64  94 CALM      30.02S
TUPELO         CLEAR     71  67  87 CALM      30.02S
$$

MSZ040-058-280800-
CENTRAL MISSISSIPPI

CITY           SKY/WX    TMP DP  RH WIND       PRES   REMARKS
JACKSON INTL   PTCLDY    71  67  87 CALM      30.01F
JACKSON HAWKNS CLEAR     73  67  81 CALM      30.02F
MERIDIAN KEY   PTCLDY    67  63  87 S3        30.01F
MERIDIAN NAS   MOCLDY    68  65  90 CALM      30.01F
RAYMOND        FAIR      68  64  88 CALM      30.02S
VICKSBURG      CLEAR     69  67  93 CALM      30.01S
$$

MSZ059>079-280800-
SOUTH MISSISSIPPI

CITY           SKY/WX    TMP DP  RH WIND       PRES   REMARKS
BROOKHAVEN     FAIR      72  72 100 CALM      30.03F
COLUMBIA       FAIR      72  72 100 CALM      30.00S FOG
HATTIESBURG    PTCLDY    73  71  93 CALM      30.01F
MCCOMB         MOCLDY    76  72  87 CALM      30.01F
NATCHEZ        PTCLDY    75  72  88 CALM      30.01F
PINE BELT      PTCLDY   N/A N/A N/A CALM      30.02F
$$

MSZ080>082-280800-
COASTAL MISSISSIPPI

CITY           SKY/WX    TMP DP  RH WIND       PRES   REMARKS
BILOXI         PTCLDY    79  75  88 NE1       29.98F
PASCAGOULA     PTCLDY    72  71  97 CALM      29.99F
GULFPORT       PTCLDY    78  73  84 CALM      29.98F
$$



USA.gov is the U.S. government's official web portal to all federal, state and local government web resources and services.